Weather History for Naples, Italy

Change the Weather History Date:

Sunday, December 2, 2012

  Actual Average Record
Temperature  
Mean Temperature 52 °F -  
Max Temperature 57 °F 56 °F 67 °F (2014)
Min Temperature 48 °F 41 °F 39 °F (2005)
Degree Days  
Heating Degree Days 12    
Growing Degree Days 2 (Base 50)    
Moisture  
Dew Point 48 °F    
Average Humidity 89    
Maximum Humidity 100    
Minimum Humidity 72    
Precipitation  
Precipitation 0.00 in 0.16 in - ()
Sea Level Pressure  
Sea Level Pressure 29.75 in    
Wind  
Wind Speed 4 mph ()    
Max Wind Speed 10 mph    
Max Gust Speed 24 mph    
Visibility 5.6 miles    
Events Rain , Thunderstorm    
Averages and records for this station are not official NWS values.
T = Trace of Precipitation, MM = Missing Value Source: Averaged Metar Reports

Daily Weather History Graph

Daily Weather History Graph

Search for Another Location

Airport:

Trip Planner

Search our weather history database for the weather conditions in past years. The results will help you decide how hot, cold, wet, or windy it might be!

Date:

Astronomy

Dec. 02, 2012 Rise Set
Actual Time 7:09 AM CET 4:35 PM CET
Civil Twilight 6:38 AM CET 5:05 PM CET
Nautical Twilight 6:04 AM CET 5:40 PM CET
Astronomical Twilight 5:31 AM CET 6:13 PM CET
Moon 8:06 PM CET (12/2) 9:48 AM CET (12/2)
Length of Visible Light 10h 27m
Length of Day
9h 26m
Waning Gibbous, 87% of the Moon is Illuminated
Dec 2
Waning Gibbous
Dec 6
Last Quarter
Dec 13
New
Dec 20
First Quarter
Dec 28
Full

Hourly Weather History & Observations

Time (CET) Temp. Dew Point Humidity Pressure Visibility Wind Dir Wind Speed Gust Speed Precip Events Conditions
12:20 AM 51.8 °F 48.2 °F 88% 29.86 in 3.1 mi West 3.5 mph - N/A Rain , Thunderstorm Thunderstorms and Rain
12:50 AM 51.8 °F 48.2 °F 88% 29.83 in 3.7 mi East 3.5 mph - N/A Rain , Thunderstorm Light Thunderstorms and Rain
1:20 AM 50.0 °F 48.2 °F 94% 29.83 in 5.0 mi East 4.6 mph - N/A Rain Light Rain
1:50 AM 50.0 °F 48.2 °F 94% 29.80 in 5.0 mi ENE 4.6 mph - N/A   Mostly Cloudy
2:20 AM 50.0 °F 48.2 °F 94% 29.83 in 5.0 mi ENE 4.6 mph - N/A   Light Drizzle
2:50 AM 50.0 °F 48.2 °F 94% 29.83 in 5.0 mi ESE 5.8 mph - N/A Rain , Thunderstorm Light Rain
3:20 AM 51.8 °F 48.2 °F 88% 29.80 in 5.0 mi East 4.6 mph - N/A Rain , Thunderstorm Light Rain
3:50 AM 50.0 °F 48.2 °F 94% 29.77 in 5.0 mi NNE 3.5 mph - N/A Rain , Thunderstorm Light Rain
4:20 AM 50.0 °F 46.4 °F 87% 29.77 in 6.2 mi East 4.6 mph - N/A Thunderstorm Scattered Clouds
4:50 AM 50.0 °F 48.2 °F 94% 29.77 in 6.2 mi East 5.8 mph - N/A Thunderstorm Scattered Clouds
5:20 AM 51.8 °F 48.2 °F 88% 29.77 in 6.2 mi Variable 2.3 mph - N/A Rain , Thunderstorm Light Rain
5:50 AM 50.0 °F 48.2 °F 94% 29.80 in 6.2 mi NW 4.6 mph - N/A Thunderstorm Mostly Cloudy
6:20 AM 50.0 °F 48.2 °F 94% 29.80 in 6.2 mi North 4.6 mph - N/A Rain , Thunderstorm Light Rain
6:50 AM 50.0 °F 48.2 °F 94% 29.80 in 4.3 mi NE 6.9 mph - N/A Rain Light Rain
7:20 AM 50.0 °F 48.2 °F 94% 29.77 in 5.0 mi ENE 4.6 mph - N/A Rain Light Rain
7:50 AM 50.0 °F 48.2 °F 94% 29.77 in 6.2 mi ENE 4.6 mph - N/A   Mostly Cloudy
8:50 AM 51.8 °F 48.2 °F 88% 29.77 in 6.2 mi North 3.5 mph - N/A   Scattered Clouds
9:20 AM 51.8 °F 48.2 °F 88% 29.77 in 6.2 mi NW 5.8 mph - N/A   Scattered Clouds
9:50 AM 51.8 °F 48.2 °F 88% 29.77 in 5.0 mi NW 6.9 mph - N/A   Mostly Cloudy
10:20 AM 51.8 °F 48.2 °F 88% 29.80 in 5.0 mi SSW 4.6 mph - N/A Rain Rain
10:50 AM 50.0 °F 48.2 °F 94% 29.77 in 6.2 mi SSE 4.6 mph - N/A Rain Rain
11:20 AM 50.0 °F 48.2 °F 94% 29.74 in 6.2 mi SSE 4.6 mph - N/A Rain Light Rain
11:50 AM 51.8 °F 48.2 °F 88% 29.74 in 6.2 mi WSW 4.6 mph - N/A   Mostly Cloudy
12:20 PM 53.6 °F 50.0 °F 88% 29.74 in 6.2 mi NNW 5.8 mph - N/A   Mostly Cloudy
12:50 PM 53.6 °F 50.0 °F 88% 29.74 in 6.2 mi West 4.6 mph - N/A   Mostly Cloudy
1:20 PM 55.4 °F 48.2 °F 77% 29.71 in 6.2 mi SSW 4.6 mph - N/A   Mostly Cloudy
1:50 PM 55.4 °F 48.2 °F 77% 29.71 in 6.2 mi SSW 5.8 mph - N/A   Mostly Cloudy
2:20 PM 57.2 °F 48.2 °F 72% 29.71 in 6.2 mi SSW 5.8 mph - N/A   Mostly Cloudy
2:50 PM 57.2 °F 48.2 °F 72% 29.71 in 6.2 mi Variable 2.3 mph - N/A   Scattered Clouds
3:20 PM 57.2 °F 50.0 °F 77% 29.71 in 6.2 mi Variable 2.3 mph - N/A   Scattered Clouds
3:50 PM 53.6 °F 46.4 °F 77% 29.71 in 6.2 mi NW 9.2 mph - N/A Rain Light Rain
4:20 PM 51.8 °F 48.2 °F 88% 29.71 in 6.2 mi NW 4.6 mph - N/A Rain Rain
4:50 PM 51.8 °F 48.2 °F 88% 29.71 in 6.2 mi WSW 3.5 mph - N/A Rain Rain
5:20 PM 50.0 °F 48.2 °F 94% 29.71 in 6.2 mi SW 3.5 mph - N/A Rain Light Rain
5:50 PM 50.0 °F 46.4 °F 87% 29.71 in 6.2 mi Calm Calm - N/A   Scattered Clouds
6:20 PM 50.0 °F 46.4 °F 87% 29.71 in 6.2 mi Variable 2.3 mph - N/A   Partly Cloudy
6:50 PM 50.0 °F 48.2 °F 94% 29.71 in 6.2 mi East 3.5 mph - N/A   Partly Cloudy
7:20 PM 50.0 °F 48.2 °F 94% 29.71 in 6.2 mi Calm Calm - N/A   Partly Cloudy
7:50 PM 48.2 °F 48.2 °F 100% 29.74 in 6.2 mi Variable 2.3 mph - N/A   Partly Cloudy
8:50 PM 48.2 °F 46.4 °F 93% 29.71 in 6.2 mi South 2.3 mph - N/A   Partly Cloudy
9:20 PM 50.0 °F 48.2 °F 94% 29.71 in 6.2 mi South 3.5 mph - N/A   Partly Cloudy
9:50 PM 50.0 °F 44.6 °F 82% 29.74 in 2.5 mi NW 10.4 mph 24.2 mph N/A Rain , Thunderstorm Heavy Thunderstorms and Rain
10:20 PM 50.0 °F 46.4 °F 87% 29.74 in 6.2 mi North 4.6 mph - N/A   Scattered Clouds
10:50 PM 50.0 °F 46.4 °F 87% 29.71 in 6.2 mi East 4.6 mph - N/A Rain , Thunderstorm Light Thunderstorms and Rain
11:20 PM 48.2 °F 46.4 °F 93% 29.74 in 2.5 mi Variable 3.5 mph - N/A Rain , Thunderstorm Thunderstorms and Rain
11:50 PM 48.2 °F 46.4 °F 93% 29.71 in 5.0 mi SE 3.5 mph - N/A Rain Light Rain